Location: Blanot
(47.1713°N, 4.2340°E)
Time: 19:57:33
(UTC+00:00)

Nadezhda 4 Rocket - Pass Details

Date: 14 July 2020
Orbit: 950 x 991 km, 82.9° (Epoch: 14 August)

Event Time Altitude Azimuth Distance (km) Brightness Sun altitude
Rises 03:04:48 0° 352° (N) 3,712 7.6 -8.3°
Reaches altitude 10° 03:07:20 10° 354° (N) 2,762 6.9 -8.0°
Maximum altitude 03:13:41 77° 80° (E) 1,021 4.3 -7.2°
Drops below altitude 10° 03:20:01 10° 167° (SSE) 2,745 6.1 -6.5°
Sets 03:22:31 0° 169° (S) 3,687 6.7 -6.1°
